Battle Mountain, Nevada, United States (89820)
Lat: 40.64N, Lon: 116.93W
Wx Zone: NVZ036
Local Info
Past Weather Observations for Wednesday, September 21, 2016

NOTE: This archive is for the closest National Weather Service station to Battle Mountain. Information may differ from the station used for current weather conditions.

Click here for Long-term Archive

Time Weather Temperature Dewpoint Humidity Pressure Winds Precip Visibility
23:56
Clear
52°F / 11°C 10°F / -12°C 19% 29.83 in
(1010 mb)
W 16.1 mph
(W 26 kph)
- 10SM
22:56
Mostly Cloudy
55°F / 13°C 7°F / -14°C 14% 29.83 in
(1010 mb)
SSW 13.8 mph
(SSW 22 kph)
- 10SM
21:56
Partly Cloudy
61°F / 16°C °F / -18°C 8% 29.83 in
(1010 mb)
SSW 15 mph
(SSW 24 kph)
- 10SM
20:56
Mostly Cloudy
63°F / 17°C 9°F / -13°C 12% 29.83 in
(1010 mb)
SSW 15 mph
(SSW 24 kph)
- 10SM
19:56
Partly Cloudy
66°F / 19°C 12°F / -11°C 12% 29.8 in
(1009 mb)
SSW 12.7 mph
(SSW 20 kph)
- 9SM
18:56
Mostly Cloudy
Hazy
68°F / 20°C 28°F / -2°C 23% 29.8 in
(1009 mb)
Calm - 6SM
17:56
Clear
72°F / 22°C 34°F / 1°C 25% 29.77 in
(1008 mb)
S 16.1 mph
(S 26 kph)
- 9SM
16:56
Mostly Cloudy
73°F / 23°C 37°F / 3°C 27% 29.77 in
(1008 mb)
S 17.3 mph
(S 28 kph)
- 7SM
15:56
Mostly Cloudy
73°F / 23°C 39°F / 4°C 29% 29.8 in
(1009 mb)
S 15 mph
(S 24 kph)
- 10SM
14:56
Overcast
72°F / 22°C 43°F / 6°C 36% 29.83 in
(1010 mb)
SSE 20.7 mph
(SSE 33 kph)
- 10SM
13:56
Mostly Cloudy
77°F / 25°C 37°F / 3°C 24% 29.86 in
(1011 mb)
S 16.1 mph
(S 26 kph)
- 10SM
12:56
Clear
73°F / 23°C 45°F / 7°C 36% 29.89 in
(1012 mb)
SE 24.2 mph
(SE 39 kph)
- 10SM
11:56
Clear
70°F / 21°C 43°F / 6°C 38% 29.92 in
(1013 mb)
SE 27.6 mph
(SE 44 kph)
- 10SM
10:56
Overcast
70°F / 21°C 43°F / 6°C 38% 29.95 in
(1014 mb)
SSE 19.6 mph
(SSE 32 kph)
0.00 in
(0.00 mm)
10SM
09:56
Overcast
73°F / 23°C 36°F / 2°C 25% 29.95 in
(1014 mb)
S 19.6 mph
(S 32 kph)
0.00 in
(0.00 mm)
10SM
08:56
Overcast
Light Rain
66°F / 19°C 43°F / 6°C 43% 29.95 in
(1014 mb)
SSE 15 mph
(SSE 24 kph)
0.00 in
(0.00 mm)
10SM
07:56
Overcast
66°F / 19°C 41°F / 5°C 40% 29.95 in
(1014 mb)
SE 16.1 mph
(SE 26 kph)
- 10SM
07:03
Overcast
70°F / 21°C 37°F / 3°C 31% 29.95 in
(1014 mb)
S 13.8 mph
(S 22 kph)
- 10SM
06:56
Overcast
70°F / 21°C 37°F / 3°C 31% 29.95 in
(1014 mb)
SSE 11.5 mph
(SSE 19 kph)
0.00 in
(0.00 mm)
10SM
05:56
Mostly Cloudy
66°F / 19°C 36°F / 2°C 32% 29.95 in
(1014 mb)
SSE 6.9 mph
(SSE 11 kph)
- 10SM
04:56
Overcast
68°F / 20°C 37°F / 3°C 33% 29.95 in
(1014 mb)
S 8.1 mph
(S 13 kph)
- 10SM
03:56
Mostly Cloudy
64°F / 18°C 36°F / 2°C 34% 29.95 in
(1014 mb)
Calm - 10SM
02:56
Mostly Cloudy
61°F / 16°C 36°F / 2°C 39% 29.95 in
(1014 mb)
SE 4.6 mph
(SE 7 kph)
- 10SM
01:56
Mostly Cloudy
64°F / 18°C 34°F / 1°C 32% 29.95 in
(1014 mb)
Calm - 10SM
00:56
Partly Cloudy
64°F / 18°C 34°F / 1°C 32% 29.98 in
(1015 mb)
SW 5.8 mph
(SW 9 kph)
- 10SM
Time Weather Temperature Dewpoint Humidity Pressure Winds Precip Visibility


Weather for websites

WeatherForYou.com, LLC is not responsible for any damages or problems caused by this service. Current weather conditions are obtained from the closest station including government and personal stations which may have varying degrees of accuracy. Weather forecasts are derived from the NOAA NDFD. Like all things, this site belongs to Jesus Christ... He just trusts us to maintain it. If you have any questions or comments email webmaster@weatherforyou.com

Copyright © 2016, WeatherForYou.com LLC. All rights reserved.